カタログに戻る

WILDFIRE 2

運用中科学PO
NORAD 57767·PAYLOAD·🇺🇸 United States

打ち上げ Sep 2, 2023 から Vandenberg Space Force Base

Loading…

次のパス (今後24時間)

TLE

最新Source: Space-Track

元期: Sep 14, 2026, 12:39 UTC

1 57767U 23133L   26257.52718869  .00000059  00000-0  42354-4 0  9998
2 57767  80.9929 281.6175 0006154 131.3706 228.7980 13.85502985153379

AllMySatでWILDFIRE 2をリアルタイム追跡

Download on the App Store